Regional Weather Roundup
Issued by NWS

Home | Current Version | Previous Version | Graphics & Text | Print | Product List | Glossary Off
Versions: 1 2 3 4 5 6 7 8 9 10 11 12 13 14 15 16 17 18 19 20 21 22 23 24 25 26 27 28 29 30 31 32 33 34 35 36 37 38 39 40 41 42 43 44 45 46 47 48 49 50

000
ASUS43 KDMX 301107
RWRIA

WEATHER ROUNDUP FOR IOWA
NATIONAL WEATHER SERVICE DES MOINES IA
500 AM CST FRI JAN 30 2015

NOTE: "FAIR" INDICATES FEW OR NO CLOUDS BELOW 12,000 FEET WITH NO
SIGNIFICANT WEATHER AND/OR OBSTRUCTIONS TO VISIBILITY.

* - THESE STATIONS ARE NOT NWS STATIONS...THUS NOT UNDER NWS
QUALITY CONTROL.  THEY ALSO DO NOT REPORT WEATHER SUCH
AS PRECIPITATION OR FOG.

IAZ001>003-012>014-020>022-031>034-043>046-301200-
   NORTHWEST IOWA

CITY           SKY/WX    TMP DP  RH WIND       PRES   REMARKS
CARROLL *      CLEAR     14  12  92 CALM      30.53S
CHEROKEE *     CLEAR     16  14  93 CALM      30.53S
DENISON *      CLEAR     16  14  93 CALM      30.51F
LE MARS *      CLEAR     19  18  93 S5        30.52F WCI  13
ORANGE CITY *  CLEAR     19  16  86 CALM      30.49F
SHELDON *      CLOUDY    18  16  93 CALM      30.49F
SIOUX CITY     PTCLDY    19  16  88 E6        30.52F WCI  11
SPENCER        CLEAR     16  11  80 CALM      30.51S
STORM LAKE *   CLEAR     16  12  86 NE3       30.52R
$$

IAZ055>058-069>071-079>083-090>094-301200-
   SOUTHWEST IOWA

CITY           SKY/WX    TMP DP  RH WIND       PRES   REMARKS
ATLANTIC *     CLEAR     16  12  86 CALM      30.53F
AUDUBON *      CLEAR     14  10  85 CALM      30.53S
CLARINDA *     CLEAR     18  16  93 N5        30.56F WCI  11
COUNCIL BLFS * CLEAR     21  19  93 NE6       30.51F WCI  14
CRESTON *      CLEAR     18  16  93 N6        30.53R WCI   9
HARLAN  *      CLEAR     14  14 100 NE3       30.56F
LAMONI         MOCLDY    19  16  88 N5        30.52R WCI  12
RED OAK *      CLEAR     14  12  92 CALM      30.55S
SHENANDOAH *   CLEAR     18  16  93 NE3       30.56S
$$

IAZ047>049-059>061-072>074-084-301200-
   CENTRAL IOWA

CITY           SKY/WX    TMP DP  RH WIND       PRES   REMARKS
AMES           CLEAR     16  11  80 N6        30.53S WCI   7
ANKENY *       CLEAR     18  12  79 N6        30.55S WCI   9
CHARITON *     PTCLDY    18  14  86 N7        30.54R WCI   8
DES MOINES     CLEAR     19  13  77 N7        30.55R WCI  10
GRINNELL*      CLEAR     18  14  86 N9        30.53R WCI   6
KNOXVILLE *    CLEAR     19  12  73 N6        30.52S WCI  11
MARSHALLTOWN   CLEAR     16  12  84 N8        30.53R WCI   5
PELLA *        CLEAR     18  14  86 N3        30.55R
PERRY *          N/A     16  14  93 CALM      30.54S
$$

IAZ004>006-015-016-023>025-035-036-301200-
   NORTH CENTRAL IOWA

CITY           SKY/WX    TMP DP  RH WIND       PRES   REMARKS
ALGONA *       CLEAR     14  10  85 N3        30.52F
CLARION *      CLEAR     14  12  92 NE6       30.52S WCI   5
ESTHERVILLE    CLEAR     12   9  87 CALM      30.51S
FORT DODGE *   CLEAR     16  10  79 NE5       30.53S WCI   9
MASON CITY     CLEAR     10   8  92 N6        30.52F WCI   0
FOREST CITY *  CLEAR     14  10  85 CALM      30.51S
IOWA FALLS *     N/A     16  12  86 N7        30.52F WCI   6
$$

IAZ007>011-017>019-026>030-037>042-050>054-066-301200-
   NORTHEAST IOWA

CITY           SKY/WX    TMP DP  RH WIND       PRES   REMARKS
CEDAR RAPIDS   CLEAR     17  12  80 N7        30.51R WCI   8
CHARLES CITY * CLEAR     14   7  73 N6        30.53R WCI   5
CLINTON *      CLEAR     16   9  73 N8        30.53R WCI   5
DECORAH *      CLEAR     12   5  73 N5        30.50R WCI   4
DUBUQUE        CLEAR     16   8  71 N12       30.48R WCI   3
MONTICELLO *   CLEAR     16  12  86 NW9       30.51S WCI   4
OELWEIN *      CLEAR     14   9  79 N9        30.51S WCI   2
WATERLOO       CLEAR     13   8  81 N9        30.53S WCI   1
$$

IAZ064-065-067-068-078-301200-
   EAST CENTRAL IOWA

CITY           SKY/WX    TMP DP  RH WIND       PRES   REMARKS
DAVENPORT      CLEAR     17  10  74 NW9       30.51R WCI   6
IOWA CITY      CLEAR     20  12  71 N10       30.54R WCI   9
MT. PLEASANT * CLEAR     21  18  86 NW9       30.52F WCI  11
MUSCATINE *    CLEAR     21  14  73 NW10      30.54R WCI  10
QUAD CITIES    CLEAR     21  12  68 NW9       30.51R WCI  11
$$

IAZ062-063-075>077-085>089-095>099-301200-
   SOUTHEAST IOWA

CITY           SKY/WX    TMP DP  RH WIND       PRES   REMARKS
BURLINGTON     CLEAR     23  17  78 N9        30.51R WCI  13
FAIRFIELD *    CLEAR     19  14  79 NW7       30.53S WCI  10
FORT MADISON * CLEAR     21  18  86 N8        30.52S WCI  12
KEOKUK *       CLEAR     23  18  80 NW6       30.52R WCI  16
OSKALOOSA *      N/A     19  14  79 N7        30.53S WCI  10
CENTERVILLE *    N/A     19  18  93 N5        30.53S WCI  13
OTTUMWA        CLEAR     18  14  84 NW7       30.53S WCI   9
WASHINGTON *   PTCLDY    21  21 100 N7        30.52F WCI  13
$$

ABBREVIATIONS USED IN REMARKS
   TC - TEMPERATURES IN CELSIUS
  WCI - WIND CHILL INDEX
   HX - HEAT INDEX
  VSB - VISIBILITY
$$



USA.gov is the U.S. government's official web portal to all federal, state and local government web resources and services.